Location: Harwich
(41.7160°N, 69.9939°W)
Time: 09:50:08
(UTC+02:00)

A-11 Canister half - Pass Details

Date: 26 February 2024
Orbit: 1513 x 1686 km, 47.2° (Epoch: 24 April)

Event Time Altitude Azimuth Distance (km) Brightness Sun altitude
Exits shadow 07:14:35 28° 70° (ENE) 2,759 10.4 -52.6°
Drops below altitude 10° 07:18:29 10° 65° (ENE) 3,898 11.5 -52.1°
Sets 07:21:36 0° 64° (ENE) 4,868 12.1 -51.8°
